TimeMDT,TemperatureF,Dew PointF,Humidity,Sea Level PressureIn,VisibilityMPH,Wind Direction,Wind SpeedMPH,Gust SpeedMPH,PrecipitationIn,Events,Conditions,WindDirDegrees,DateUTC
12:15 AM,37.4,23.0,56,30.26,10.0,Calm,Calm,-,N/A,,Clear,0,2012-10-11 06:15:00
12:35 AM,39.2,23.0,52,30.26,10.0,North,4.6,-,N/A,,Clear,360,2012-10-11 06:35:00
12:55 AM,35.6,21.2,56,30.25,10.0,Calm,Calm,-,N/A,,Clear,0,2012-10-11 06:55:00
1:15 AM,33.8,19.4,56,30.26,10.0,SE,3.5,-,N/A,,Clear,130,2012-10-11 07:15:00
1:55 AM,35.6,21.2,56,30.27,10.0,Calm,Calm,-,N/A,,Clear,0,2012-10-11 07:55:00
2:15 AM,33.8,21.2,60,30.27,10.0,Calm,Calm,-,N/A,,Clear,0,2012-10-11 08:15:00
2:35 AM,32.0,19.4,60,30.28,10.0,Calm,Calm,-,N/A,,Clear,0,2012-10-11 08:35:00
2:55 AM,30.2,21.2,69,30.28,10.0,Calm,Calm,-,N/A,,Clear,0,2012-10-11 08:55:00
3:15 AM,32.0,21.2,64,30.28,10.0,Calm,Calm,-,N/A,,Clear,0,2012-10-11 09:15:00
3:35 AM,32.0,21.2,64,30.28,10.0,Calm,Calm,-,N/A,,Clear,0,2012-10-11 09:35:00
3:55 AM,32.0,21.2,64,30.28,10.0,Calm,Calm,-,N/A,,Clear,0,2012-10-11 09:55:00
4:15 AM,28.4,19.4,69,30.28,10.0,Calm,Calm,-,N/A,,Clear,0,2012-10-11 10:15:00
4:35 AM,30.2,21.2,69,30.29,10.0,Calm,Calm,-,N/A,,Clear,0,2012-10-11 10:35:00
5:15 AM,28.4,19.4,69,30.29,10.0,Calm,Calm,-,N/A,,Clear,0,2012-10-11 11:15:00
5:35 AM,26.6,17.6,69,30.30,10.0,Calm,Calm,-,N/A,,Clear,0,2012-10-11 11:35:00
5:55 AM,26.6,17.6,69,30.30,10.0,Calm,Calm,-,N/A,,Clear,0,2012-10-11 11:55:00
6:15 AM,26.6,19.4,74,30.31,10.0,Calm,Calm,-,N/A,,Clear,0,2012-10-11 12:15:00
6:35 AM,26.6,19.4,74,30.31,10.0,Calm,Calm,-,N/A,,Clear,0,2012-10-11 12:35:00
6:55 AM,26.6,19.4,74,30.31,10.0,Calm,Calm,-,N/A,,Clear,0,2012-10-11 12:55:00
7:15 AM,26.6,17.6,69,30.32,10.0,Calm,Calm,-,N/A,,Clear,0,2012-10-11 13:15:00
7:35 AM,26.6,19.4,74,30.32,10.0,Calm,Calm,-,N/A,,Clear,0,2012-10-11 13:35:00
7:55 AM,24.8,17.6,74,30.33,5.0,Calm,Calm,-,N/A,,Clear,0,2012-10-11 13:55:00
8:15 AM,30.2,23.0,75,30.33,10.0,ENE,3.5,-,N/A,,Clear,70,2012-10-11 14:15:00
8:35 AM,30.2,21.2,69,30.34,10.0,Calm,Calm,-,N/A,,Clear,0,2012-10-11 14:35:00
8:55 AM,33.8,23.0,65,30.34,10.0,Calm,Calm,-,N/A,,Clear,0,2012-10-11 14:55:00
9:15 AM,35.6,24.8,65,30.34,10.0,Calm,Calm,-,N/A,,Clear,0,2012-10-11 15:15:00
9:35 AM,39.2,24.8,56,30.34,10.0,Calm,Calm,-,N/A,,Clear,0,2012-10-11 15:35:00
9:55 AM,41.0,24.8,53,30.34,10.0,Calm,Calm,-,N/A,,Clear,0,2012-10-11 15:55:00
10:15 AM,44.6,24.8,46,30.33,10.0,Calm,Calm,-,N/A,,Clear,0,2012-10-11 16:15:00
10:35 AM,44.6,23.0,43,30.33,10.0,Calm,Calm,-,N/A,,Clear,0,2012-10-11 16:35:00
10:55 AM,48.2,24.8,40,30.32,10.0,Calm,Calm,-,N/A,,Clear,0,2012-10-11 16:55:00
11:15 AM,50.0,26.6,40,30.31,10.0,NE,3.5,-,N/A,,Clear,50,2012-10-11 17:15:00
11:55 AM,53.6,24.8,33,30.29,10.0,Calm,Calm,-,N/A,,Clear,0,2012-10-11 17:55:00
12:15 PM,55.4,24.8,31,30.28,10.0,SW,3.5,-,N/A,,Clear,230,2012-10-11 18:15:00
12:35 PM,57.2,26.6,31,30.27,10.0,Calm,Calm,-,N/A,,Clear,0,2012-10-11 18:35:00
12:55 PM,62.6,28.4,27,30.25,10.0,ESE,3.5,-,N/A,,Clear,110,2012-10-11 18:55:00
1:15 PM,62.6,24.8,24,30.24,10.0,Calm,Calm,-,N/A,,Clear,0,2012-10-11 19:15:00
1:35 PM,64.4,24.8,22,30.23,10.0,South,4.6,-,N/A,,Clear,170,2012-10-11 19:35:00
1:55 PM,64.4,24.8,22,30.22,10.0,SE,3.5,-,N/A,,Clear,140,2012-10-11 19:55:00
2:15 PM,66.2,24.8,21,30.20,10.0,SE,8.1,-,N/A,,Clear,130,2012-10-11 20:15:00
2:55 PM,66.2,24.8,21,30.20,10.0,South,5.8,-,N/A,,Clear,190,2012-10-11 20:55:00
3:15 PM,68.0,24.8,20,30.19,10.0,ESE,4.6,-,N/A,,Clear,110,2012-10-11 21:15:00
3:35 PM,66.2,23.0,19,30.19,10.0,SE,3.5,-,N/A,,Clear,130,2012-10-11 21:35:00
3:55 PM,66.2,23.0,19,30.18,10.0,WNW,3.5,-,N/A,,Clear,290,2012-10-11 21:55:00
4:15 PM,68.0,24.8,20,30.17,10.0,NNW,3.5,-,N/A,,Clear,340,2012-10-11 22:15:00
4:35 PM,68.0,24.8,20,30.17,10.0,ENE,9.2,-,N/A,,Clear,70,2012-10-11 22:35:00
4:55 PM,69.8,24.8,18,30.17,10.0,NE,5.8,-,N/A,,Partly Cloudy,40,2012-10-11 22:55:00
5:15 PM,68.0,24.8,20,30.17,10.0,East,3.5,-,N/A,,Scattered Clouds,90,2012-10-11 23:15:00
5:35 PM,66.2,24.8,21,30.17,10.0,NW,3.5,-,N/A,,Mostly Cloudy,310,2012-10-11 23:35:00
5:55 PM,66.2,24.8,21,30.17,10.0,Calm,Calm,-,N/A,,Mostly Cloudy,0,2012-10-11 23:55:00
6:15 PM,66.2,24.8,21,30.17,10.0,West,3.5,-,N/A,,Mostly Cloudy,270,2012-10-12 00:15:00
6:35 PM,66.2,24.8,21,30.18,10.0,Calm,Calm,-,N/A,,Scattered Clouds,0,2012-10-12 00:35:00
7:15 PM,62.6,24.8,24,30.18,10.0,SSW,4.6,-,N/A,,Partly Cloudy,200,2012-10-12 01:15:00
7:35 PM,62.6,24.8,24,30.19,10.0,SSW,6.9,-,N/A,,Clear,210,2012-10-12 01:35:00
7:55 PM,60.8,24.8,25,30.19,10.0,SSW,10.4,-,N/A,,Clear,200,2012-10-12 01:55:00
8:15 PM,60.8,24.8,25,30.20,10.0,SW,6.9,-,N/A,,Clear,220,2012-10-12 02:15:00
8:35 PM,60.8,24.8,25,30.21,10.0,South,10.4,-,N/A,,Partly Cloudy,190,2012-10-12 02:35:00
8:55 PM,60.8,24.8,25,30.23,10.0,Calm,Calm,-,N/A,,Scattered Clouds,0,2012-10-12 02:55:00
9:55 PM,57.2,24.8,29,30.27,10.0,South,13.8,20.7,N/A,,Mostly Cloudy,190,2012-10-12 03:55:00
10:15 PM,57.2,30.2,36,30.28,10.0,South,12.7,-,N/A,,Mostly Cloudy,170,2012-10-12 04:15:00
10:35 PM,57.2,30.2,36,30.29,10.0,South,9.2,-,N/A,,Overcast,180,2012-10-12 04:35:00
11:15 PM,57.2,30.2,36,30.32,10.0,SW,10.4,-,N/A,,Overcast,220,2012-10-12 05:15:00
11:35 PM,55.4,33.8,44,30.33,10.0,South,19.6,25.3,N/A,,Overcast,190,2012-10-12 05:35:00
11:55 PM,51.8,37.4,58,30.30,10.0,ESE,13.8,-,N/A,,Overcast,110,2012-10-12 05:55:00